STARLINK-34670 (65424 NORAD) Tracking and Keplerian Element Data

This shows tracking and keplerian element data for the satellite.

Feedback or suggestion? Click here.




ElementValue
Catalog65424
NameSTARLINK-34670
Epoch Orbit1711
Epoch Day353.9942428
Epoch Year2025
RAAN247.4198
Inclination53.1587
Eccentricity0.0001715
Argument of Perigee51.7019
Mean Anonmoly308.414
Mean Motion15.39616264
Decay Rate0.00010734
L11 65424U 25192W 25353.99424280 .00010734 00000+0 27800-3 0 9990
L22 65424 53.1587 247.4198 0001715 51.7019 308.4140 15.39616264 17117



Live tracking and technical data element details for STARLINK-34670 (NORAD 65424). STARLINK-34670 can be tracked NOW for your location showing map with azimuth and elevation plus other details from your city location.







IsCatalogInMostPopularTable: catalog: 65424, numindb: 2
Update: records affected: 1



GetName: 65424 STARLINK-34670

Hit Count: updated at: Mon, 09 Feb 2026 09:27:49 GMT